Tracking 28790 objects as of 19-Apr-2024
HD Live streaming from Space Station
objects crossing your sky now

CLUSTER II-FM6

Track CLUSTER II-FM6 now!
CLUSTER II-FM6 is classified as:


NORAD ID: 26410
Int'l Code: 2000-041A
Perigee: 13,055.5 km
Apogee: 119,763.2 km
Inclination: 138.7 °
Period: 3,256.7 minutes
Semi major axis: 72780 km
RCS: 1.9953 m2 (large)
Launch date: July 16, 2000
Source: European Space Agency (ESA)
Launch site: TYURATAM MISSILE AND SPACE COMPLEX (TTMTR)
Your satellite tracking list
Your tracking list is empty




NASA's NSSDC Master Catalog

Two Line Element Set (TLE):
1 26410U 00041A   24108.28159548 -.00000174  00000-0  00000-0 0  9998
2 26410 138.6604 357.0840 7330808 211.9246   0.5940  0.44216231 16787
Source of the keplerian elements: AFSPC